Theta_e
302 306 306 306 305 301 301 301 301 300 303 305 305 303 305 307 308 313 315 318 324 325 325 324 324 326 326 326 320 317 322 327 327 327 327 329 330 329 331 332 332 332 329 333 330
305 305 305 303 301 300 301 301 301 302 299 306 306 304 303 307 310 311 313 315 322 325 325 325 325 324 325 326 320 317 322 324 326 326 327 328 329 329 330 331 331 331 332 336 329
305 304 304 304 301 300 301 301 302 305 301 300 306 308 304 308 311 311 308 314 317 323 324 325 325 324 324 323 323 319 320 323 324 325 327 328 329 329 329 331 329 330 333 334 335
303 303 303 301 299 300 302 301 301 302 302 298 304 308 305 307 310 313 306 309 314 322 324 324 324 324 323 324 323 320 319 320 323 324 326 329 329 328 329 329 328 328 333 333 335
302 303 301 301 299 300 301 301 301 302 302 298 304 307 305 308 308 310 315 316 313 321 324 324 324 324 324 324 322 322 319 320 319 324 325 327 328 329 329 328 327 328 334 332 332
301 301 302 301 299 300 301 301 300 302 302 299 306 306 306 309 307 306 310 313 316 318 324 324 324 324 324 323 323 322 323 322 319 321 325 326 328 328 328 328 327 332 333 333 333
301 302 302 301 299 300 300 300 300 302 304 299 306 306 306 307 309 310 311 313 317 320 324 323 324 325 325 325 322 319 323 325 322 321 323 326 329 328 328 328 329 331 333 334 333
303 302 303 302 300 301 301 300 301 302 300 300 305 307 306 306 308 310 312 313 315 320 323 324 324 325 325 321 320 319 321 327 323 323 324 326 329 328 328 329 330 330 332 333 333
305 304 304 303 301 302 301 301 301 302 304 305 306 306 306 309 309 310 311 316 315 317 323 324 323 321 319 324 322 323 325 328 328 323 324 327 327 331 327 329 330 330 332 333 332
306 305 305 304 302 302 302 301 303 304 305 305 305 306 307 310 312 310 310 310 318 318 320 321 319 320 321 325 327 324 326 325 327 324 324 327 327 331 327 328 329 330 331 330 330
306 306 305 304 303 302 300 306 306 305 305 305 307 307 310 310 311 312 309 310 317 320 322 318 323 325 323 323 326 325 326 328 329 324 324 326 327 329 327 328 329 330 329 328 327
307 306 304 302 301 301 302 307 306 305 304 306 305 306 308 310 313 312 312 312 318 322 318 320 326 322 321 323 325 325 326 329 323 319 324 326 327 327 326 328 329 330 330 329 326
304 302 301 301 300 301 305 307 307 306 305 305 307 310 311 311 313 315 314 316 319 321 319 324 324 322 322 324 326 325 329 330 330 318 319 324 326 327 326 323 327 329 330 329 327
301 301 301 300 304 306 307 307 305 306 309 310 309 311 310 312 310 315 316 317 318 320 319 322 319 323 324 324 324 327 325 327 328 326 332 323 332 329 328 324 324 327 329 329 328
299 299 303 303 303 307 306 306 305 305 314 309 306 308 312 314 313 314 315 315 317 314 316 315 320 324 325 325 322 324 318 322 323 329 328 321 328 329 328 329 323 324 325 328 329
302 302 302 306 305 305 305 303 305 310 318 310 305 308 314 315 315 314 313 313 311 313 312 313 313 318 318 318 320 313 318 317 319 322 329 325 329 332 330 329 329 324 325 326 327
302 303 304 304 305 303 302 305 311 315 307 310 307 309 312 315 316 315 315 315 315 316 315 311 311 311 313 313 312 316 320 323 325 324 333 327 327 331 328 325 326 328 324 324 324
301 301 301 303 302 302 304 309 312 309 308 306 307 308 312 312 315 315 317 316 314 314 315 318 317 315 314 315 316 317 321 325 329 329 328 315 329 329 326 325 321 322 325 325 321
301 300 300 301 301 302 308 313 308 307 306 306 308 311 311 312 313 316 317 317 314 313 319 320 315 310 313 313 315 316 321 316 317 312 326 320 318 316 316 319 318 315 312 314 322
301 301 302 301 301 304 306 306 306 305 304 305 312 312 315 312 315 314 315 314 314 313 311 315 317 309 312 312 312 315 316 319 319 326 327 324 322 323 316 317 318 315 311 312 313
301 303 302 301 302 305 308 305 303 304 304 305 308 312 313 314 313 314 315 312 313 312 311 313 315 311 311 315 315 315 317 317 320 319 326 327 322 313 319 316 316 314 312 310 310
301 302 301 302 303 300 307 304 305 305 304 305 306 307 310 312 312 313 313 313 310 311 314 311 313 315 314 310 309 315 317 318 323 321 316 315 323 308 309 309 307 311 310 312 310
301 302 301 303 305 304 301 305 305 305 306 306 307 306 307 310 314 310 311 310 310 311 312 312 313 317 315 313 309 314 314 317 319 317 321 323 322 306 309 310 309 308 308 310 310
300 302 302 301 301 303 304 301 303 304 305 305 307 307 308 309 309 311 310 309 310 310 310 309 311 316 317 315 314 315 315 315 318 322 322 321 321 313 310 310 310 307 306 309 309
299 298 295 303 300 302 303 304 305 304 305 305 306 308 307 309 309 308 310 310 309 310 309 308 313 310 309 310 312 314 316 316 318 318 321 321 319 319 309 309 309 308 307 308 308
299 299 295 297 298 302 302 303 304 305 305 306 307 307 308 309 307 309 309 309 311 309 310 308 312 311 311 308 310 312 314 317 317 317 318 319 318 310 308 306 307 308 306 307 307
299 298 300 297 299 303 302 302 303 304 304 304 305 306 307 306 305 306 306 306 308 310 310 310 311 313 316 308 311 314 311 314 316 317 317 319 318 314 310 310 308 308 308 308 307
Wind_Speed
15 18 18 18 19 19 19 19 17 17 18 16 17 18 17 21 24 29 37 32 33 31 24 34 38 38 21 14 15 15 13 15 20 17 13 10 13 10 8 11 11 10 1 8 29
17 19 21 20 20 20 19 19 18 18 18 18 18 16 17 20 25 37 35 33 32 32 29 32 36 36 13 14 10 14 12 20 15 15 12 14 17 17 9 14 13 12 6 20 31
19 21 22 21 21 21 19 19 19 19 18 18 18 19 18 17 27 42 35 38 41 32 36 20 27 30 15 17 20 13 19 14 18 13 11 12 18 18 14 14 17 20 19 23 32
20 20 22 23 22 21 20 19 18 19 18 19 20 19 19 14 12 5 30 37 37 37 33 26 23 23 12 12 26 18 24 27 20 8 7 12 17 17 20 6 17 17 22 26 32
20 20 22 22 21 20 20 19 19 19 19 19 20 17 17 20 28 21 7 20 36 42 38 34 28 24 15 15 21 22 18 24 16 10 10 10 18 16 22 3 9 19 25 28 29
22 18 20 21 20 20 20 20 19 20 21 21 21 19 19 25 30 41 33 24 37 47 52 38 30 35 25 17 17 11 30 17 18 16 8 9 15 15 18 9 15 22 25 26 28
17 19 20 20 20 19 19 20 20 21 24 23 22 19 24 40 18 22 33 31 30 42 44 47 33 32 19 9 19 8 11 19 15 16 9 14 15 14 17 15 19 21 22 24 26
20 20 20 20 19 19 20 19 21 23 25 24 25 25 27 27 31 32 21 29 32 39 44 41 31 28 21 11 9 4 5 13 16 11 8 14 18 22 18 21 20 21 21 23 25
23 20 19 19 18 18 18 19 23 24 29 29 25 23 15 15 31 34 33 25 29 36 36 43 34 11 10 13 5 11 12 23 17 15 7 15 14 17 22 22 21 22 22 23 25
23 20 17 16 16 16 17 20 23 27 23 17 26 16 18 21 16 28 30 34 29 32 31 28 13 6 5 8 19 16 18 17 21 14 13 16 16 15 23 23 24 23 22 24 26
19 15 14 13 13 13 16 15 10 6 10 10 5 17 15 20 14 21 33 33 33 37 10 13 11 18 22 24 14 21 21 19 27 11 17 17 19 13 17 22 24 24 24 24 26
7 8 8 9 10 11 14 8 14 16 11 16 20 23 29 13 11 19 29 23 12 10 12 5 21 28 22 20 12 21 20 16 7 7 12 18 19 19 12 21 28 28 26 25 24
4 4 4 5 9 11 11 14 16 22 6 7 8 8 11 15 6 16 20 33 17 13 13 20 10 22 18 16 18 8 20 19 12 4 2 5 15 19 16 17 22 26 27 27 28
8 6 5 7 8 8 11 10 19 12 4 5 6 2 9 11 9 11 7 9 2 10 21 8 2 21 18 17 16 17 10 12 14 15 13 9 10 21 21 18 18 26 26 29 29
7 6 6 8 10 9 13 19 19 6 5 7 5 8 6 6 9 2 6 8 7 4 1 3 12 20 20 24 21 5 7 5 3 14 7 1 6 17 22 24 23 24 30 29 30
8 8 9 9 8 10 19 19 7 3 4 5 5 5 3 2 4 5 6 10 9 3 9 3 4 3 2 9 13 7 12 11 5 2 7 13 13 16 22 23 23 24 30 32 32
8 10 11 11 9 17 19 6 2 4 1 9 5 7 7 2 3 3 6 3 6 4 3 4 3 2 7 11 4 6 12 4 4 3 3 20 15 15 13 19 21 22 30 31 31
10 12 14 12 16 20 7 2 3 3 4 4 3 7 4 7 3 3 8 3 5 6 2 3 3 3 6 5 8 12 10 4 6 6 8 3 12 10 20 18 18 20 24 32 30
14 13 11 11 20 11 2 2 2 4 6 7 6 2 2 4 2 2 1 6 4 3 0 3 4 2 3 3 8 5 7 1 2 1 5 8 6 7 8 9 11 14 13 15 27
17 14 6 16 15 3 2 2 3 2 4 3 5 4 2 2 2 1 5 2 6 3 5 2 4 3 3 6 4 3 4 3 2 6 6 8 10 9 10 16 16 15 19 16 17
12 6 4 18 5 5 3 3 4 1 4 3 3 3 4 2 1 1 3 2 2 5 7 2 2 1 1 4 7 3 3 5 2 3 3 3 4 5 14 14 15 14 19 17 16
6 2 11 9 3 2 2 1 6 7 3 3 2 3 3 2 2 2 1 4 3 8 5 2 3 3 2 3 3 8 7 11 3 4 2 2 2 5 5 6 5 5 13 15 15
8 5 8 5 2 2 3 3 3 9 7 5 4 2 3 3 1 2 1 5 8 3 5 4 2 5 3 1 1 6 9 14 9 1 10 5 2 1 3 5 4 1 6 12 16
3 2 5 9 4 2 2 3 5 6 3 7 5 4 2 4 5 2 1 5 4 4 7 4 2 2 2 3 7 5 11 12 12 5 5 11 8 3 5 4 4 2 4 8 14
3 1 1 2 4 4 2 2 5 6 8 11 5 9 3 4 3 2 2 2 4 6 3 2 2 2 3 3 1 3 13 18 20 18 9 7 11 9 5 6 4 2 4 7 10
0 3 2 1 3 1 3 4 6 5 7 5 7 10 10 5 6 4 2 2 2 2 2 2 2 2 2 4 1 4 8 18 20 18 19 12 11 6 4 1 3 2 4 7 11
1 3 1 1 2 1 1 2 5 5 3 6 7 5 7 7 12 8 7 3 3 1 1 1 3 1 2 3 1 5 11 14 13 16 14 18 17 6 5 8 8 6 7 9 10
Wind_Direction
322 315 311 311 311 308 306 301 295 289 284 283 283 285 265 258 256 242 241 233 225 230 237 238 230 232 254 271 261 256 253 241 236 227 239 158 188 188 184 167 182 190 172 144 170
310 304 304 308 310 306 302 299 293 284 276 280 279 289 276 266 266 258 239 233 219 226 227 226 217 223 244 258 242 219 226 242 243 245 243 193 202 175 178 181 186 171 133 151 166
303 302 301 304 307 303 298 295 289 283 286 274 279 278 286 270 272 260 243 229 221 225 223 216 214 208 214 247 238 240 236 237 257 253 262 214 210 183 200 199 201 189 164 163 168
302 299 299 301 304 299 294 295 288 281 285 275 273 274 283 264 243 261 234 231 221 220 223 203 187 182 217 219 231 240 236 245 257 252 249 225 206 199 207 195 207 190 176 173 172
304 297 297 302 302 298 293 294 288 282 279 276 272 264 282 254 242 225 271 223 221 217 209 205 192 190 197 222 231 229 245 229 240 239 237 243 221 206 209 156 169 166 169 175 177
301 297 300 302 302 297 298 293 285 279 280 274 270 260 269 257 260 247 259 254 211 214 199 199 201 198 210 216 207 232 237 252 236 229 221 216 226 207 213 169 162 162 171 178 180
301 296 299 302 302 302 295 286 280 278 279 275 269 259 265 248 256 247 243 236 221 217 204 203 204 186 188 183 203 274 228 243 231 216 218 212 211 222 204 172 172 174 175 180 185
305 298 297 298 301 298 291 287 286 284 284 277 270 252 263 263 252 242 236 237 229 226 209 193 188 183 193 139 141 201 244 216 209 191 207 196 215 222 194 179 182 182 180 183 187
298 292 295 294 297 295 295 292 291 292 281 273 261 257 260 263 226 237 226 231 226 232 187 186 188 164 137 173 146 198 206 209 232 203 180 198 225 194 181 190 187 187 184 185 186
288 285 286 291 292 295 297 299 301 296 288 272 245 243 234 231 218 224 221 236 221 198 151 175 159 145 142 182 202 189 212 199 205 195 207 197 228 171 182 193 196 191 188 187 188
281 275 277 287 290 293 303 317 312 301 282 242 263 239 297 216 206 216 214 229 232 182 164 178 169 184 188 200 206 200 202 201 204 178 190 201 218 190 197 202 206 192 195 191 193
278 265 280 290 286 294 297 281 292 303 291 275 251 266 245 285 213 207 201 200 174 217 140 174 194 180 180 190 193 198 200 223 160 167 211 202 216 226 201 211 206 204 198 196 192
357 356 329 293 301 298 284 290 292 317 270 281 267 253 234 216 274 228 213 193 179 189 208 186 164 170 175 176 202 200 201 207 200 149 251 196 234 220 210 224 222 220 212 202 196
31 28 342 333 334 310 300 291 322 309 278 338 319 155 271 192 210 201 206 145 121 187 181 229 251 164 172 180 189 211 209 204 217 173 205 223 234 214 212 210 212 211 216 209 201
12 3 339 324 295 313 302 313 321 291 280 352 284 282 291 177 161 77 125 80 117 87 200 217 170 163 174 194 186 202 140 160 280 185 143 279 249 237 197 210 208 208 211 212 208
1 347 343 349 321 303 316 320 317 239 270 353 313 307 180 178 135 81 38 69 90 29 52 49 25 122 131 131 171 144 97 57 44 22 200 185 198 227 230 213 210 207 213 210 209
345 339 338 335 306 327 325 339 270 274 24 343 340 330 346 98 99 143 144 119 115 130 103 32 8 44 112 85 54 128 133 117 187 189 238 180 204 229 212 202 220 209 207 210 207
328 326 318 309 324 332 343 280 300 32 337 350 333 320 15 7 5 95 144 98 64 70 107 144 158 142 164 144 168 163 157 174 165 186 164 232 219 223 235 258 214 216 222 214 205
323 330 315 320 330 339 281 302 2 355 326 316 306 317 352 26 0 107 153 126 117 188 60 108 65 346 53 106 133 172 221 82 31 162 172 196 227 282 233 242 186 213 217 224 208
330 332 296 333 336 19 71 34 304 285 299 276 349 356 45 45 31 77 151 22 131 129 78 76 109 9 43 71 359 214 150 174 213 183 221 196 232 244 194 211 211 203 207 209 206
335 323 311 335 5 59 69 356 306 312 326 315 334 341 34 52 30 84 27 27 80 90 83 9 216 64 221 191 157 117 167 233 259 293 284 238 232 7 204 212 207 210 204 187 183
337 336 334 350 44 38 60 297 318 338 12 299 299 336 7 49 24 79 52 2 98 134 134 59 94 123 78 42 353 223 212 203 212 187 288 27 291 341 35 39 16 75 186 177 176
333 301 340 40 75 53 343 337 328 7 5 344 339 355 332 21 57 50 53 31 135 118 151 151 132 123 104 110 14 209 204 215 245 312 218 203 161 30 114 107 96 105 171 181 183
351 360 359 51 46 89 22 0 335 19 358 0 351 312 335 22 18 116 78 24 33 83 86 69 161 283 188 51 131 185 199 210 211 214 210 231 257 99 70 58 89 151 200 196 186
22 80 52 4 32 22 29 14 13 8 348 12 14 10 336 6 357 70 63 107 56 125 109 104 113 110 46 355 163 205 191 201 216 225 227 233 230 271 63 61 43 87 161 184 186
37 137 103 80 305 334 11 15 21 9 13 19 11 11 49 57 29 348 346 19 64 101 102 182 125 138 118 47 324 276 233 208 225 230 242 264 289 12 316 50 290 166 169 205 203
152 129 118 321 316 298 56 19 10 340 54 38 348 11 24 6 338 18 34 30 353 289 109 104 132 142 126 354 324 256 232 214 225 229 233 235 238 301 315 291 240 242 212 213 214